EW6338 Weather Reports


Display with metric or nautical units.
time (UTC)temp
F
wind
direction
speed
MPH
gust
MPH
rain 1hr
in
rain 24hr
in
rain mn
in
humidity
%
barometer
mb
20260901023016 62 131 0.0 0.0 0.00 0.00 0.00 89 1016.4
20260901021519 63 131 0.0 0.0 0.00 0.00 0.00 88 1016.5
20260901020016 62 134 0.0 0.0 0.00 0.00 0.00 87 1016.4
20260901014514 63 134 0.0 0.0 0.00 0.00 0.00 86 1016.6
20260901013013 63 134 0.0 0.0 0.00 0.00 0.00 85 1016.6
20260901011516 64 134 0.0 0.0 0.00 0.00 0.00 84 1016.7
20260901010017 64 134 0.0 0.0 0.00 0.00 0.00 84 1016.6
20260901004511 64 149 0.0 2.0 0.00 0.00 0.00 83 1016.5
20260901003024 64 131 0.0 2.0 0.00 0.00 0.00 82 1016.5
20260901001511 64 134 0.0 2.0 0.00 0.00 0.00 81 1016.4
20260901000027 65 101 0.0 0.0 0.00 0.00 0.00 80 1016.5
20260831234509 65 137 0.0 1.0 0.00 0.00 0.00 79 1016.5
20260831233008 65 139 0.0 2.0 0.00 0.00 0.00 77 1016.6
20260831231508 66 120 0.0 1.0 0.00 0.00 0.00 75 1016.7
20260831230015 67 110 0.0 1.0 0.00 0.00 0.00 73 1016.8
20260831224507 68 141 0.0 3.0 0.00 0.00 0.00 70 1016.8
20260831223007 70 72 0.0 4.0 0.00 0.00 0.00 68 1016.9
20260831221506 72 166 0.0 4.0 0.00 0.00 0.00 66 1016.9
20260831220015 73 263 0.0 2.0 0.00 0.00 0.00 66 1016.7
20260831214505 74 96 0.0 1.0 0.00 0.00 0.00 65 1016.8
20260831213007 74 91 0.0 3.0 0.00 0.00 0.00 65 1016.7
20260831211503 75 133 0.0 4.0 0.00 0.00 0.00 63 1016.7
20260831210002 79 127 0.0 4.0 0.00 0.00 0.00 57 1016.8
20260831204502 82 304 0.0 4.0 0.00 0.00 0.00 51 1016.8
20260831203107 82 143 0.0 1.0 0.00 0.00 0.00 49 1016.7
20260831203001 82 250 0.0 1.0 0.00 0.00 0.00 50 1016.8
20260831201559 82 18 0.0 2.0 0.00 0.00 0.00 45 1016.9
20260831200108 81 110 0.0 1.0 0.00 0.00 0.00 46 1016.8
20260831194611 80 335 0.0 4.0 0.00 0.00 0.00 47 1016.9
20260831193055 80 290 0.0 3.0 0.00 0.00 0.00 48 1016.9
20260831191553 81 273 0.0 1.0 0.00 0.00 0.00 59 1017.2
20260831190105 80 128 0.0 1.0 0.00 0.00 0.00 57 1017.2
20260831184552 79 123 0.0 2.0 0.00 0.00 0.00 59 1017.5
20260831183051 79 113 0.0 2.0 0.00 0.00 0.00 58 1017.5
20260831181556 79 131 0.0 2.0 0.00 0.00 0.00 52 1017.7
20260831180055 79 177 0.0 1.0 0.00 0.00 0.00 51 1017.7
20260831174545 78 359 0.0 3.0 0.00 0.00 0.00 52 1017.8
20260831173045 77 122 0.0 1.0 0.00 0.00 0.00 57 1018.0
20260831171543 78 119 0.0 1.0 0.00 0.00 0.00 54 1018.2
20260831170043 77 133 0.0 1.0 0.00 0.00 0.00 54 1018.4
20260831164544 78 124 0.0 2.0 0.00 0.00 0.00 56 1018.6
20260831163040 78 108 0.0 1.0 0.00 0.00 0.00 56 1018.5
20260831161544 77 73 0.0 0.0 0.00 0.00 0.00 54 1018.8
20260831160035 76 106 0.0 2.0 0.00 0.00 0.00 56 1019.0
20260831154532 75 114 0.0 1.0 0.00 0.00 0.00 56 1019.0
20260831153029 74 124 0.0 1.0 0.00 0.00 0.00 58 1019.2
20260831151528 72 4 0.0 1.0 0.00 0.00 0.00 60 1019.3
20260831150022 71 101 0.0 1.0 0.00 0.00 0.00 62 1019.2
20260831144522 70 117 0.0 2.0 0.00 0.00 0.00 64 1019.3
20260831143018 69 230 0.0 1.0 0.00 0.00 0.00 67 1019.4
20260831141516 68 220 0.0 0.0 0.00 0.00 0.00 66 1019.4
20260831140016 68 104 0.0 0.0 0.00 0.00 0.00 67 1019.3
20260831134514 67 124 0.0 0.0 0.00 0.00 0.00 69 1019.4
20260831133013 65 116 0.0 0.0 0.00 0.00 0.00 73 1019.3
20260831131510 64 278 0.0 0.0 0.00 0.00 0.00 82 1019.2
20260831130011 62 293 0.0 0.0 0.00 0.00 0.00 87 1019.1
20260831124508 61 309 0.0 0.0 0.00 0.00 0.00 94 1019.2
20260831123006 60 236 0.0 0.0 0.00 0.00 0.00 97 1019.0
20260831121504 60 236 0.0 0.0 0.00 0.00 0.00 98 1018.8
20260831120003 59 236 0.0 0.0 0.00 0.00 0.00 97 1018.7
20260831114502 58 236 0.0 0.0 0.00 0.00 0.00 98 1018.6
20260831113002 58 235 0.0 0.0 0.00 0.00 0.00 97 1018.5
20260831111614 58 236 0.0 0.0 0.00 0.00 0.00 97 1018.6
20260831110104 58 236 0.0 0.0 0.00 0.00 0.00 97 1018.7
20260831104602 58 236 0.0 0.0 0.00 0.00 0.00 97 1018.6
20260831103104 58 236 0.0 0.0 0.00 0.00 0.00 97 1018.4
20260831101557 58 236 0.0 0.0 0.00 0.00 0.00 96 1018.2
20260831100052 58 359 0.0 0.0 0.00 0.00 0.00 97 1018.0
20260831094549 58 359 0.0 0.0 0.00 0.00 0.00 96 1017.7
20260831093047 59 359 0.0 0.0 0.00 0.00 0.00 96 1017.7
20260831091556 59 359 0.0 0.0 0.00 0.00 0.00 96 1017.4
20260831090044 59 359 0.0 0.0 0.00 0.00 0.00 96 1017.3
20260831084541 60 359 0.0 0.0 0.00 0.00 0.00 95 1017.2
20260831083040 60 359 0.0 0.0 0.00 0.00 0.00 95 1017.2
20260831081540 60 359 0.0 0.0 0.00 0.00 0.00 95 1017.0
20260831080057 60 359 0.0 0.0 0.00 0.00 0.00 95 1016.9
20260831074534 60 359 0.0 0.0 0.00 0.00 0.00 94 1016.7
20260831073056 61 359 0.0 0.0 0.00 0.00 0.00 93 1016.6
20260831071530 61 359 0.0 0.0 0.00 0.00 0.00 92 1016.5
20260831070030 62 359 0.0 0.0 0.00 0.00 0.00 92 1016.6
20260831064523 63 359 0.0 0.0 0.00 0.00 0.00 92 1016.4
20260831063032 64 359 0.0 0.0 0.00 0.00 0.00 92 1016.4
20260831061519 64 359 0.0 1.0 0.00 0.00 0.00 92 1016.1
20260831060019 64 359 0.0 0.0 0.00 0.00 0.00 91 1016.1
20260831054518 64 359 0.0 0.0 0.00 0.00 0.00 91 1016.1
20260831053014 65 359 0.0 0.0 0.00 0.00 0.00 89 1016.0
20260831051511 66 359 0.0 0.0 0.00 0.00 0.00 89 1015.9
20260831050009 66 359 0.0 0.0 0.00 0.00 0.00 88 1015.7
20260831044508 67 359 0.0 0.0 0.00 0.00 0.00 87 1015.7
20260831043005 67 359 0.0 2.0 0.00 0.00 0.00 86 1015.5
20260831041609 68 14 0.0 0.0 0.00 0.00 0.00 84 1015.3
20260831040058 69 14 0.0 1.0 0.00 0.00 0.00 83 1015.1
20260831034604 70 11 0.0 0.0 0.00 0.00 0.00 82 1015.3
20260831033056 71 11 0.0 0.0 0.00 0.00 0.00 82 1015.3
20260831031558 71 11 0.0 1.0 0.00 0.00 0.00 82 1015.4
20260831030100 72 302 0.0 1.0 0.00 0.00 0.00 82 1015.3
20260831024555 72 13 0.0 1.0 0.00 0.00 0.00 82 1015.3